Find Starlink 32406

NORAD ID: 61545 Int'l Des: 2024-184 Owner: SPXS Country: US Constellation: starlink operational
LEOCIRCULAR

实时位置

正在加载3D地球...

关于 Starlink 32406

正在加载描述...

即将过境

Passes for default location (London). Set your location on the main map for personalized predictions.

高度历史

Loading altitude history...

两行轨道根数

1 61545U 24184P 26126.34880568 .00001440 00000-0 60745-4 0 9994
2 61545 53.1600 106.2044 0001306 76.9544 283.1602 15.30200744 87339
Epoch: May 6, 2026 • Age: 11 hours

当前状态

高度 492.2 km
速度 7.62 km/s
星下点 -47.49°S, 100.69°W
发射日期 Oct 15, 2024
运行时间 1.5 years
类型 internet

技术详情

分类 Payload
质量 730.00 kg
干质量 700.00 kg
总质量 730.00 kg
长度 0.30 m
直径 4.10 m
跨度 29.00 m
形状 Box + pan
制造商 SPXS
平台类型 Starlink V2M
阶段状态 In Orbit
所有者/国家 SPXS/US

Most Searched